sat.trackr.live / text

‹ back to catalog

STARLINK-6169

NORAD 56889 · 2023-083P

PAYLOAD ACTIVE UNKNOWN

§ Identity

Operator
Country
US
Launch date
2023-06-12
Launch site
AFETR
Launch vehicle
Mass (kg)
RCS (m²)

Purposes: comms

External: N2YO · Heavens-Above · Gunter

§ Orbital elements

Epoch: 2026-09-19T22:50:32.220384Z

Period
94.27 min
Inclination
43.0040°
Eccentricity
0.0001735
Mean motion
15.27574427 rev/d
Perigee alt
481.9 km
Apogee alt
484.3 km
Semi-major
6,861.2 km
B*
1.2205e-5
RAAN
67.8079°
Arg perigee
265.2292°
Mean anomaly
94.8361°
Rev number
18,133

§ Raw data

STARLINK-61691 56889U 23083P   26262.95176181  .00000073  00000+0  12205-4 0  99912 56889  43.0040  67.8079 0001735 265.2292  94.8361 15.27574427181331

JSON: /api/v1/satellites/56889 · /tle

For live sub-satellite position, see the globe view (requires WebGL).

§ Visibility from observer

Set your observer location to see the next 7 days of passes ≥ 10°. The values pass through the URL so the page stays shareable.

No JS? Fill the form by hand. The geolocation button needs JavaScript.